CW9181 Weather Reports


time (UTC)temp
C
wind
direction
speed
KPH
gust
KPH
rain 1hr
cm
rain 24hr
cm
rain mn
cm
humidity
%
barometer
mb
20260906145039 15 126 8.0 12.9 0.00 0.03 0.00 78 1014.7
20260906144014 15 132 6.4 12.9 0.00 0.03 0.00 78 1014.7
20260906143013 15 123 3.2 9.7 0.00 0.03 0.00 77 1014.5
20260906142017 14 202 6.4 11.3 0.00 0.03 0.00 77 1014.3
20260906141017 14 100 3.2 6.4 0.00 0.03 0.00 77 1014.3
20260906140036 14 132 3.2 9.7 0.00 0.03 0.00 77 1014.1
20260906135019 14 135 4.8 8.0 0.00 0.03 0.00 76 1014.0
20260906134015 14 130 3.2 8.0 0.00 0.03 0.00 77 1013.9
20260906133017 14 116 3.2 6.4 0.00 0.03 0.00 76 1014.0
20260906132017 14 111 3.2 6.4 0.00 0.03 0.00 75 1013.9
20260906131017 14 107 4.8 8.0 0.00 0.03 0.00 74 1013.7
20260906130013 14 110 3.2 8.0 0.00 0.03 0.00 73 1013.8
20260906125012 14 141 4.8 8.0 0.00 0.03 0.00 72 1013.7
20260906124010 14 134 4.8 8.0 0.00 0.03 0.00 72 1013.7
20260906123009 14 139 3.2 8.0 0.00 0.03 0.00 73 1013.7
20260906122036 14 103 4.8 6.4 0.00 0.03 0.00 73 1013.5
20260906121013 14 119 3.2 6.4 0.00 0.03 0.00 72 1013.7
20260906120012 14 131 1.6 3.2 0.00 0.03 0.00 72 1013.6
20260906115012 14 130 3.2 4.8 0.00 0.03 0.00 72 1013.5
20260906114006 15 111 3.2 6.4 0.00 0.03 0.00 72 1013.5
20260906113012 15 145 3.2 6.4 0.00 0.03 0.00 72 1013.6
20260906112012 15 131 1.6 8.0 0.00 0.03 0.00 71 1013.5
20260906111011 15 125 4.8 6.4 0.00 0.03 0.00 71 1013.5
20260906110012 15 134 3.2 4.8 0.00 0.03 0.00 70 1013.4
20260906105011 15 127 3.2 6.4 0.00 0.03 0.00 70 1013.3
20260906104006 15 141 4.8 8.0 0.00 0.03 0.00 70 1013.3
20260906103013 15 175 3.2 6.4 0.00 0.03 0.00 69 1013.4
20260906102017 15 163 1.6 6.4 0.00 0.03 0.00 68 1013.4
20260906101020 16 164 3.2 6.4 0.00 0.03 0.00 67 1013.4
20260906100015 16 129 3.2 14.5 0.00 0.03 0.00 65 1013.3
20260906095038 16 157 4.8 14.5 0.00 0.03 0.00 64 1013.3
20260906094022 16 154 6.4 8.0 0.00 0.03 0.00 63 1013.3
20260906093036 16 175 4.8 11.3 0.00 0.03 0.00 60 1013.4
20260906092018 16 162 4.8 9.7 0.00 0.03 0.00 59 1013.4
20260906091039 17 193 3.2 9.7 0.00 0.03 0.00 57 1013.5
20260906090016 17 178 4.8 9.7 0.00 0.03 0.00 58 1013.5
20260906085021 17 161 3.2 6.4 0.00 0.03 0.00 57 1013.7
20260906084027 17 143 3.2 8.0 0.00 0.03 0.00 57 1013.7
20260906083026 17 139 3.2 4.8 0.00 0.03 0.00 58 1013.6
20260906082011 17 151 3.2 6.4 0.00 0.03 0.00 57 1013.5
20260906081014 17 161 3.2 8.0 0.00 0.03 0.00 56 1013.5
20260906080015 17 134 3.2 8.0 0.00 0.03 0.00 55 1013.5
20260906075018 17 140 3.2 4.8 0.00 0.03 0.00 55 1013.6
20260906074021 17 114 3.2 6.4 0.00 0.03 0.00 55 1013.6
20260906073020 17 118 3.2 6.4 0.00 0.03 0.00 55 1013.7
20260906072042 18 135 1.6 4.8 0.00 0.03 0.00 54 1013.7
20260906071022 18 125 0.0 4.8 0.00 0.03 0.00 53 1013.7
20260906070019 18 107 3.2 6.4 0.00 0.03 0.00 52 1013.7
20260906065026 18 145 1.6 4.8 0.00 0.03 0.03 51 1013.6
20260906064021 18 132 3.2 4.8 0.00 0.03 0.03 50 1013.5
20260906063017 19 119 3.2 6.4 0.00 0.03 0.03 49 1013.7
20260906062012 19 115 1.6 4.8 0.00 0.03 0.03 51 1013.6
20260906061026 20 132 1.6 4.8 0.00 0.03 0.03 50 1013.7
20260906060025 20 152 3.2 4.8 0.00 0.03 0.03 50 1013.7
20260906055023 20 149 1.6 6.4 0.00 0.03 0.03 49 1013.7
20260906054016 20 119 3.2 4.8 0.00 0.03 0.03 48 1013.7
20260906053011 21 167 0.0 4.8 0.00 0.03 0.03 48 1013.5
20260906052013 21 135 3.2 9.7 0.00 0.03 0.03 47 1013.6
20260906051029 21 228 1.6 6.4 0.00 0.03 0.03 46 1013.3
20260906050008 21 235 0.0 12.9 0.00 0.03 0.03 46 1013.3
20260906045010 22 226 3.2 9.7 0.00 0.03 0.03 46 1013.3
20260906044040 22 233 1.6 8.0 0.00 0.03 0.03 46 1013.3
20260906043011 22 206 4.8 8.0 0.00 0.03 0.03 46 1013.3
20260906042028 22 242 3.2 12.9 0.00 0.03 0.03 45 1013.2
20260906041008 23 241 3.2 14.5 0.00 0.03 0.03 44 1013.2
20260906040028 23 251 1.6 8.0 0.00 0.03 0.03 44 1013.2
20260906035022 23 182 3.2 6.4 0.00 0.03 0.03 43 1012.9
20260906034025 23 241 3.2 8.0 0.00 0.03 0.03 42 1012.8
20260906033045 24 230 4.8 11.3 0.00 0.03 0.03 41 1012.8
20260906032016 24 251 3.2 14.5 0.00 0.03 0.03 40 1012.8
20260906031036 24 253 3.2 9.7 0.00 0.03 0.03 37 1012.6
20260906030013 25 260 1.6 8.0 0.00 0.03 0.03 35 1012.6
20260906025007 25 240 3.2 4.8 0.00 0.03 0.03 34 1012.5
20260906024026 25 211 1.6 4.8 0.00 0.03 0.03 34 1012.4
20260906023022 25 216 1.6 11.3 0.00 0.03 0.03 34 1012.5
20260906022016 26 170 8.0 16.1 0.00 0.03 0.03 33 1012.5
20260906021009 26 155 3.2 9.7 0.00 0.03 0.03 34 1012.5
20260906020024 27 218 3.2 12.9 0.00 0.03 0.03 34 1012.6
20260906015021 27 260 8.0 14.5 0.00 0.03 0.03 33 1012.6
20260906014021 27 172 4.8 9.7 0.00 0.03 0.03 35 1012.5
20260906013017 28 189 1.6 9.7 0.00 0.03 0.03 34 1012.5
20260906012010 28 241 6.4 12.9 0.00 0.03 0.03 33 1012.5
20260906011008 28 169 8.0 12.9 0.00 0.03 0.03 34 1012.6
20260906010009 28 176 3.2 12.9 0.00 0.03 0.03 34 1012.6
20260906005009 28 193 4.8 17.7 0.00 0.03 0.03 33 1012.6
20260906004044 28 216 3.2 16.1 0.00 0.03 0.03 34 1012.5
20260906003033 28 24 1.6 14.5 0.00 0.03 0.03 31 1012.6
20260906002006 28 216 8.0 17.7 0.00 0.03 0.03 32 1012.5
20260906001026 28 189 8.0 14.5 0.00 0.03 0.03 34 1012.6
20260906000023 28 162 6.4 12.9 0.00 0.03 0.03 33 1012.6
20260905235023 28 186 4.8 11.3 0.00 0.03 0.03 33 1012.7
20260905234020 28 316 3.2 9.7 0.00 0.03 0.03 32 1012.7
20260905233016 28 249 3.2 12.9 0.00 0.03 0.03 33 1012.7
20260905232027 28 213 3.2 8.0 0.00 0.03 0.03 33 1012.7
20260905231006 28 177 3.2 12.9 0.00 0.03 0.03 33 1012.8
20260905230047 28 260 3.2 6.4 0.00 0.03 0.03 34 1012.9
20260905225020 27 10 4.8 9.7 0.00 0.03 0.03 34 1013.1
20260905224016 27 341 3.2 12.9 0.00 0.03 0.03 35 1013.2
20260905223019 27 247 4.8 9.7 0.00 0.03 0.03 36 1013.2
20260905222013 27 265 1.6 12.9 0.00 0.03 0.03 35 1013.2
20260905221011 26 168 6.4 12.9 0.00 0.03 0.03 37 1013.3
20260905220010 26 241 4.8 9.7 0.00 0.03 0.03 37 1013.3
20260905215021 26 260 6.4 14.5 0.00 0.03 0.03 38 1013.5
20260905214022 26 357 6.4 12.9 0.00 0.03 0.03 36 1013.9
20260905213036 26 265 6.4 12.9 0.00 0.03 0.03 38 1013.8
20260905212032 26 239 6.4 16.1 0.00 0.03 0.03 37 1013.9
20260905211029 26 254 4.8 11.3 0.00 0.03 0.03 38 1014.0
20260905210026 26 65 1.6 12.9 0.00 0.03 0.03 38 1014.1
20260905205007 25 182 3.2 11.3 0.00 0.03 0.03 38 1014.1
20260905204025 26 192 6.4 16.1 0.00 0.03 0.03 37 1014.1
20260905203021 26 103 1.6 12.9 0.00 0.03 0.03 38 1014.2
20260905202018 26 89 6.4 12.9 0.00 0.03 0.03 38 1014.2
20260905201019 25 260 1.6 8.0 0.00 0.03 0.03 40 1014.3
20260905200011 25 192 3.2 6.4 0.00 0.03 0.03 40 1014.4
20260905195010 25 260 8.0 16.1 0.00 0.03 0.03 41 1014.5
20260905194013 25 120 3.2 12.9 0.00 0.03 0.03 44 1014.5
20260905193010 24 66 1.6 9.7 0.00 0.03 0.03 43 1014.6
20260905192028 25 236 3.2 11.3 0.00 0.03 0.03 47 1014.6
20260905191007 23 360 6.4 12.9 0.00 0.03 0.03 48 1014.8
20260905190041 23 278 4.8 12.9 0.00 0.03 0.03 45 1015.0
20260905185019 23 16 3.2 9.7 0.00 0.03 0.03 49 1015.0
20260905184016 23 201 6.4 12.9 0.00 0.03 0.03 50 1014.9
20260905183009 23 220 4.8 12.9 0.00 0.03 0.03 51 1015.0
20260905182015 23 54 1.6 9.7 0.00 0.03 0.03 55 1015.0
20260905181017 22 255 3.2 9.7 0.00 0.03 0.03 53 1015.0
20260905180021 22 279 1.6 9.7 0.00 0.03 0.03 55 1014.9
20260905175035 22 73 3.2 9.7 0.00 0.03 0.03 54 1014.8
20260905174016 22 249 4.8 8.0 0.03 0.03 0.03 56 1014.8
20260905173010 22 150 0.0 8.0 0.03 0.03 0.03 56 1014.8
20260905172007 21 87 1.6 8.0 0.03 0.03 0.03 58 1014.8
20260905171021 21 73 3.2 9.7 0.03 0.03 0.03 60 1014.8
20260905170023 20 186 4.8 9.7 0.03 0.03 0.03 63 1014.8
20260905165015 20 30 1.6 9.7 0.03 0.03 0.03 63 1014.7
20260905164036 19 260 1.6 4.8 0.00 0.00 0.00 65 1014.7
20260905163016 19 200 4.8 9.7 0.00 0.00 0.00 65 1014.7
20260905162014 18 127 4.8 6.4 0.00 0.00 0.00 66 1014.8
20260905161015 18 91 3.2 6.4 0.00 0.00 0.00 67 1014.8
20260905160013 18 176 0.0 4.8 0.00 0.00 0.00 68 1014.8
20260905155012 17 191 3.2 4.8 0.00 0.00 0.00 69 1014.8
20260905154012 17 226 3.2 6.4 0.00 0.00 0.00 70 1014.8
20260905153028 17 189 1.6 8.0 0.00 0.00 0.00 72 1014.9
20260905152024 16 108 3.2 8.0 0.00 0.00 0.00 74 1014.8
20260905151026 15 126 3.2 6.4 0.00 0.00 0.00 79 1014.7
20260905150008 14 105 4.8 6.4 0.00 0.00 0.00 84 1014.7